www.pogodaiklimat.ru
Время
и дата
06:54 27.11
07:54 27.11
08:54 27.11
09:54 27.11
10:54 27.11
11:47 27.11
11:54 27.11
12:25 27.11
12:52 27.11
12:54 27.11
12:58 27.11
13:13 27.11
13:54 27.11
14:54 27.11
15:01 27.11
15:19 27.11
15:37 27.11
15:54 27.11
16:26 27.11
16:54 27.11
17:39 27.11
17:54 27.11
18:21 27.11
18:54 27.11
19:54 27.11
20:54 27.11
21:54 27.11
22:54 27.11
23:36 27.11
23:54 27.11
00:24 28.11
00:43 28.11
00:54 28.11
01:18 28.11
01:54 28.11
02:54 28.11
03:54 28.11
04:54 28.11
05:54 28.11
06:54 28.11
07:54 28.11
08:54 28.11
09:54 28.11
10:54 28.11
11:54 28.11
12:54 28.11
13:54 28.11
14:54 28.11
Ветер
(напр.,м/с)
Видим. Явления Облачность Т
(С)
Тd
(С)
f
(%)
Тe
(С)
Тes
(С)
Комфортность P
(гПа)
Po
(гПа)
Тmin
(С)
Tmax
(С)
R
(мм)
R24
(мм)
S
(см)
штиль 0 16 км 10/0 4200 m
[Ac]
+6.1 +1.7 73 1011.7 +3.9 +6.1
ЮВ 2 16 км 10/0 2100 m
[Ac]
+8.3 +2.8 68 +7 +7 1011.0 1005.0
штиль 0 16 км 10/0 2100 m
[Ac]
+9.4 +3.9 68 +9 +9 1009.9 1004.0
штиль 0 16 км 10/8 840 m
[Ac]
+10.0 +5.6 74 +9 +10 1009.5 1003.6
Ю 3 16 км слабый дождь 10/10 630 m
[Ns]
+11.7 +7.2 74 +10 +10 1008.0 1002.3
нст 2 16 км слабый дождь 10/10 420 m
[Ns]
+10.0 +8.3 89 +8 +8 1000.3
нст 2 11 км слабый дождь 10/10 360 m
[Ns]
+10.0 +8.3 89 +8 +8 1005.9 999.9
Ю 2 4 км слабый дождь, дымка 10/10 240 m
[Ns]
+10.0 +8.9 93 +8 +8 999.3
Ю 2 2 км слабый дождь, дымка 10/10 210 m
[Ns]
+10.0 +9.0 93 +8 +8 998.2
ЮВ 2 2 км слабый дождь, дымка 10/10 210 m
[Ns]
+10.0 +8.9 93 +8 +8 1003.7 997.9 +7.8 +11.7 5.1
ЮВ 3 5 км слабый дождь, дымка 10/10 210 m
[Ns]
+10.0 +8.9 93 +8 +8 997.2
В 5 6 км слабый дождь, дымка 10/10 120 m
[Ns]
+10.0 +8.9 93 +7 +7 995.9
СЗ 2 11 км 10/10 120 м +10.0 +9.4 96 +8 +8 1000.5 994.9
штиль 0 6 км слабый дождь, дымка 10/10 120 m
[Ns]
+10.6 +10.0 96 +10 +10 999.3 993.5
нст 2 2 км слабый дождь, дымка 10/10 120 m
[Ns]
+10.6 +10.0 96 +9 +9 993.5
В 2 1 км слабый дождь, дымка 10/10 90 m
[Ns]
+10.6 +10.0 96 +9 +9 993.2
ЮВ 3 800 м слабый дождь, туман 10/10 120 m
[Ns]
+10.6 +10.0 96 +8 +8 992.5
штиль 0 2 км слабый дождь, дымка 10/10 120 m
[Ns]
+10.6 +10.0 96 +10 +10 998.1 992.2 1.8
штиль 0 1 км дымка 10/10 90 м +11.1 +10.0 93 +10 +10 991.5
штиль 0 1 км дымка, туман поземный 10/10 60 м +10.6 +10.0 96 +10 +10 996.4 990.5
ЮЗ 2 800 м туман 10/10 +10.6 +10.0 96 +9 +9 990.8
ЮЗ 4
{8}
10 км туман поземный 5/5 +12.8 +12.2 96 +11 +11 996.6 990.8
ЮЗ 6
{12}
16 км 8/8 420 м +14.4 +13.3 93 +12 +12 990.8
З 5 16 км 8/8 330 м +14.4 +13.3 93 +13 +13 997.8 992.2 +10.0 +15.0 1.8
З 5 16 км 8/8 360 m
[Ac]
+13.3 +11.7 90 +11 +11 998.4 992.5
З 4 16 км 10/10 270 м +13.3 +11.7 90 +12 +12 999.1 993.5
З 2 13 км 10/10 210 м +12.2 +11.1 93 +11 +11 999.5 993.9
ЮЗ 2 6 км дымка 10/10 120 м +12.2 +11.1 93 +11 +11 999.7 994.2
З 2 2 км дымка 10/10 90 м +11.7 +11.1 96 +10 +10 994.2
ЮЗ 3 1 км дымка 10/10 60 м +11.7 +11.1 96 +10 +10 1000.4 994.5
Ю 2 400 м туман ?/? +11.7 +11.1 96 +10 +10 994.5
З 2 1 км дымка 8/8 60 м +11.1 +10.6 97 +10 +10 994.9
З 2 3 км дымка 8/5 60 m
[Ac]
+11.1 +10.6 97 +10 +10 1000.6 994.9 +11.1 +14.4
З 2 6 км дымка 8/2 30 m
[Ac]
+11.1 +10.6 97 +10 +10 994.9
ЮЗ 2 8 км дымка 8/0 2100 m
[Ac]
+10.0 +9.4 96 +8 +8 1000.8 994.9
ЮЗ 2 10 км дымка 8/0 2100 m
[Ac]
+10.6 +10.0 96 +9 +9 1001.5 995.6
ЮЗ 2 14 км 10/0 2100 m
[Ac]
+10.6 +10.0 96 +9 +9 1001.8 995.9
З 4 16 км 8/0 2250 m
[Ac]
+10.6 +9.4 92 +8 +8 1002.3 996.6
З 3 16 км 5/5 1950 м +12.2 +7.8 74 +11 +11 1003.0 997.2
З 5 16 км 5/0 2100 m
[Ac]
+12.2 +6.7 69 +10 +10 1003.9 998.2 +9.4 +12.8 6.9
З 7
{11}
16 км 5/0 2100 m
[Ac]
+12.2 +6.7 69 +9 +9 1005.1 999.6
СЗ 9
{12}
16 км 8/5 1050 m
[Ac]
+11.7 +4.4 61 +8 +8 1007.4 1001.6
СЗ 6
{10}
16 км 8/8 1170 m
[Ac]
+10.6 +3.9 63 +8 +8 1009.2 1003.3
СЗ 6
{9}
16 км 8/8 1110 m
[Ac]
+11.1 +2.8 57 +8 +9 1009.9 1004.3
СЗ 6
{9}
16 км 8/5 1200 m
[Ac]
+11.7 +2.2 52 +9 +10 1010.0 1004.3
СЗ 5
{11}
16 км 8/8 1200 м +12.2 +1.7 49 +10 +11 1010.2 1004.3 +10.6 +13.3
З 8
{12}
16 км 8/8 1410 м +11.7 +1.1 48 +9 +9 1010.7 1005.0
З 6 16 км 8/8 1410 м +11.7 +1.7 50 +9 +10 1011.7 1006.0
Местоположение метеостанции Baltimore-Washington International Airport: широта 39.1667 долгота -76.6833 высота над уровнем моря 48 м.
В архиве по умолчанию представлена погода в Балтиморе за последние 1-2 суток. Обновление информации о фактической погоде в базе происходит ежечасно! Архивные данные за месяц целиком и за предыдущие месяцы Вы можете получить, выбрав интересующий диапазон дат из раскрывающегося списка и нажав кнопку "Ввод!".
Внимание! Архив погоды МЕТАР в базе сайта по станциям, не включенным в климатический монитор, хранится не более 60 дней. Нет смысла пытаться выбрать более раннюю дату.
*Определитесь, кто Вы:
Внимание! Время в таблицах - местное (без учета летнего времени). Для получения всемирного времени необходимо вычесть поправку, которая равна -5 ч.
Смотрите также архив погоды в соседних городах и на ближайших метеорологических станциях:
Партнеры нашего сайта:      
Пояснения к столбцам:
  • Ветер - указаны скорость ветра в м/с - средняя за 10 мин, порывы в срок и между сроками (в фигурных скобках) и направление, откуда дует ветер: С - северный,
  • СВ - северо-восточный, В - восточный, ЮВ - юго-восточный, Ю - южный, ЮЗ - юго-западный, З - западный, СЗ - северо-западный.
  • Видимость - горизонтальная дальность видимости в метрах или километрах. При видимости от 1 до 10 км при отсутствии осадков обычно наблюдается дымка, при ухудшении видимости до 1 км и менее - туман. В сухую погоду видимость может ухудшаться дымом, пылью или мглою.
  • Явления - указаны атмосферные явления, наблюдавшиеся в срок или в последний час перед сроком; фигурными скобками обозначены явления, наблюдавшиеся между сроками (за 1-3 часа до срока); квадратными скобками обозначены град или гололедные отложения с указанием их диаметра в мм.
  • Облачность - указаны через наклонную черту общая и нижняя облачность в баллах и высота нижней границы облаков в метрах; квадратными скобками обозначены формы облаков: Ci - перистые, Cs - перисто-слоистые, Cc - перисто-кучевые, Ac - высококучевые, As - высокослоистые, Sc - слоисто-кучевые, Ns - слоисто-дождевые, Cu - кучевые, Cb - кучево-дождевые. Подробнее классификацию облаков см. в Атласе облаков (PDF).
  • T - Температура воздуха - температура, измеренная на высоте 2 м над землей.
  • Td - Температура точки росы - температура, при понижении до которой содержащийся в воздухе водяной пар достигнет насыщения.
  • f - Относительная влажность воздуха - влажноcть воздуха, измеренная на высоте 2 м над землей.
  • Te - Эффективная температура - температура, которую ощущает одетый по сезону человек в тени. Характеристика душности погоды. При расчете учитывается влияние влажности воздуха и скорости ветра на теплоощущения человека.
  • Tes - Эффективная температура на солнце - температура, которую ощущает человек, с поправкой на солнечный нагрев. Характеристика знойности погоды. Зависит от высоты солнца над горизонтом, облачности и скорости ветра. Ночью, в пасмурную погоду, а также при ветре 12 м/с и более поправка равна нулю.
  • P - Атмосферное давление - приведенное к уровню моря атмосферное давление.
  • Po - Атмосферное давление - измеренное на уровне метеостанции атмосферное давление.
  • Tmin - Минимальная температура - минимум температуры воздуха на высоте 2 м над землей.
  • Tmax - Максимальная температура - максимум температуры воздуха на высоте 2 м над землей.
  • R - Количество осадков - Количество выпавших осадков за период времени, мм. При наведении курсора мыши на число - период времени, за который выпало указанное количество осадков.
  • R24 - Количество осадков - Количество выпавших осадков за 24 часа, мм.
  • S - Снежный покров - Высота снежного покрова, см. При наведении курсора мыши на число - состояние снежного покрова и степень покрытия местности в баллах.